Weather Roundup
Issued by NWS

Home | Current Version | Previous Version | Text Only | Print | Product List | Glossary On
Versions: 1 2 3 4 5 6 7 8 9 10 11 12 13 14 15 16 17 18 19 20 21 22 23 24 25 26 27 28 29 30 31 32 33 34 35 36 37 38 39 40 41 42 43 44 45 46 47 48 49 50
000
NZUS93 KARX 271959
HRRWXR

CURRENT HOURLY OBSERVATIONS ACROSS
MUCH OF THE UPPER MISSISSIPPI VALLEY
NATIONAL WEATHER SERVICE LA CROSSE WI
300 PM CDT SUN JUL 27 2014


...SOUTHEAST MINNESOTA...


CITY           SKY/WX    TMP DP  RH WIND       PRES   REMARKS
ROCHESTER      CLOUDY    70  58  65 NW14G21   29.94R
ROCHESTER/MAYO FAIR      71  54  53 NW21G31   29.92R
WINONA         PTSUNNY   75  59  57 NW18G25   29.87S
AUSTIN         PTSUNNY   72  57  60 NW18G26   29.94S
ALBERT LEA     LGT RAIN  66  61  82 NW8G18    29.98R
DODGE CENTER   MOSUNNY   73  59  60 NW24G30   29.94R
PRESTON        PTSUNNY   69  62  76 N21G26    29.92S
OWATONNA       MOSUNNY   75  57  53 NW22G28   29.95S
FARIBAULT      PTSUNNY   77  54  44 NW12G18   29.95S
$$

...ELSEWHERE IN MINNESOTA...


CITY           SKY/WX    TMP DP  RH WIND       PRES   REMARKS
MINNEAPOLIS    PTSUNNY   76  58  53 NW13      29.93R
INTNL FALLS    CLOUDY    69  54  58 NE8       30.06R
DULUTH         LGT RAIN  60  56  86 E13       30.00R FOG
RED WING       PTSUNNY   77  57  50 NW18G25   29.90R
REDWOOD FALLS  PTSUNNY   74  58  57 NW17G31   30.03R
MANKATO        PTSUNNY   72  57  60 NW18      29.98R
WORTHINGTON    CLOUDY    66  55  68 NW17      30.12R
FAIRMONT       PTSUNNY   72  55  56 NW20G28   30.03R
$$

...SOUTHWEST WISCONSIN...


CITY           SKY/WX    TMP DP  RH WIND       PRES   REMARKS
LA CROSSE      MOSUNNY   79  59  50 NW20      29.84R
PRAIRIE DU CHI NOT AVBL
BOSCOBEL       MOSUNNY   79  59  50 NW14G24   29.84R
LONE ROCK      NOT AVBL
PLATTEVILLE    CLOUDY    72  56  57 W14G28    29.85R
FORT MC COY    PTSUNNY   73  55  54 NW17G24   29.84R
CAMP DOUGLAS   LGT RAIN  72  61  68 NW23G30   29.81R
VIROQUA        MOCLDY    73  58  59 NW20G25   29.85S
WIS DELLS      PTSUNNY   76  56  50 W10G18    29.79S
$$

...ELSEWHERE IN WISCONSIN...


CITY           SKY/WX    TMP DP  RH WIND       PRES   REMARKS
MILWAUKEE      PTSUNNY   69  58  67 NW12      29.73R
MADISON        PTSUNNY   72  60  66 NW14G23   29.79R
GREEN BAY      LGT RAIN  73  61  65 N12       29.73R
EAU CLAIRE     NOT AVBL
BLACK RVR FLS  FAIR      76  56  50 W12G20    29.83R
MEDFORD        CLOUDY    65  58  77 N16G26    29.84R
WAUSAU         CLOUDY    67  63  87 N9G17     29.80S
WIS RAPIDS     MOSUNNY   75  56  51 MISG      29.80R
MARSHFIELD     MOSUNNY   75  59  57 NW21G28   29.82R
RICE LAKE      MOSUNNY   71  58  62 N14G21    29.91R
$$

...NORTHEAST IOWA...


CITY           SKY/WX    TMP DP  RH WIND       PRES   REMARKS
WATERLOO       PTSUNNY   72  58  61 NW16G30   29.93S
DUBUQUE        MOSUNNY   73  59  61 NW17G30   29.87R
DECORAH        PTSUNNY   73  59  60 NW13G25   29.88S
MASON CITY     CLOUDY    72  59  63 NW20G26   29.99S
CHARLES CITY   PTSUNNY   72  59  64 NW21G29   29.95R
OELWEIN        PTSUNNY   73  61  64 NW24G31   29.92S
$$

...ELSEWHERE IN IOWA...


CITY           SKY/WX    TMP DP  RH WIND       PRES   REMARKS
DES MOINES     PTSUNNY   77  56  48 NW24G31   30.00S
IOWA CITY      PTSUNNY   77  59  53 NW18G35   29.92R
FORT DODGE     CLOUDY    70  57  64 NW14G20   30.06R
MARSHALLTOWN   CLOUDY    73  58  59 NW22G33   29.98R
CEDAR RAPIDS   PTSUNNY   75  58  55 NW25G35   29.91S
$$

...NORTHERN ILLINOIS...


CITY           SKY/WX    TMP DP  RH WIND       PRES   REMARKS
CHICAGO-OHARE  MOSUNNY   83  55  38 NW30G38   29.71S
DUPAGE         PTSUNNY   81  56  42 NW24G31   29.74R
CHICAGO-MIDWAY PTSUNNY   86  57  37 W28G33    29.70F
MOLINE         PTSUNNY   79  58  48 NW23G33   29.86R
ROCKFORD       PTSUNNY   77  54  44 NW22G33   29.79R
STERLING       MOSUNNY   79  59  50 NW20G29   29.82S
PEORIA         MOSUNNY   83  57  41 W16G28    29.84S
$$

NOTE: "FAIR" INDICATES FEW OR NO CLOUDS BELOW 12,000 FEET WITH NO
SIGNIFICANT WEATHER AND/OR OBSTRUCTIONS TO VISIBILITY. WIND
SPEEDS ARE IN MILES-PER-HOUR.



USA.gov is the U.S. government's official web portal to all federal, state and local government web resources and services.